This demonstration page uses our WeatherBlox Daily Observations layout. Learn more.

Left ArrowRight Arrow

Hourly Observations for July 19, 2016

Temp ( °F °C ) Dew Point ( °F °C ) Humidity (%) Winds ( mph kmh ) Pressure ( in mb ) Visibility ( mi km ) Precip ( " mm )
12:15 am 00:15 Partly Cloudy with Nearby Thunderstorms 78 25.5 72 22.2 82 82 ESE 10 17 29.94 1014 10 16 N/A
12:35 am 00:35 Partly Cloudy 78 25.6 71 21.7 79 79 NW 23 37 30.03 1017 10 16 N/A
12:55 am 00:55 Cloudy with Light Rain 74 23.2 64 17.8 72 72 NNW 26 43 30.09 1019 10 16 N/A
1:15 am 01:15 Cloudy with Rain 70 21 65 18.3 85 85 NW 29 46 30.15 1021 7 11 0.03 0.76
1:35 am 01:35 Cloudy 69 20.6 66 18.8 89 89 NW 23 37 30.15 1021 4 6 0.16 4.06
1:55 am 01:55 Cloudy with Thunderstorms 69 20.5 66 19 91 91 NW 21 33 30.15 1021 3 4 0.39 9.91
2:15 am 02:15 Cloudy with Thunderstorms 69 20.5 66 19 91 91 NW 21 33 30.15 1021 5 8 0.05 1.27
2:35 am 02:35 Cloudy with Heavy Rain 68 20 65 18.6 92 92 NNW 22 35 30.12 1020 7 11 0.11 2.79
2:55 am 02:55 Cloudy with Strong Thunderstorms 68 19.8 64 17.6 87 87 NNW 28 44 30.12 1020 5 8 0.25 6.35
3:15 am 03:15 Cloudy with Strong Thunderstorms 69 20.4 63 17.1 81 81 NNW 14 22 30.09 1019 5 8 0.09 2.29
3:35 am 03:35 Mostly Cloudy with Thunderstorms 67 19.7 63 17.4 87 87 NNW 10 17 30.09 1019 10 16 0.13 3.30
3:55 am 03:55 Mostly Cloudy with Light Rain 69 20.6 63 17.2 81 81 NNW 3 6 30.06 1018 10 16 0.13 3.30
4:15 am 04:15 Mostly Cloudy 68 20.2 63 17.2 83 83 N N/A 30.06 1018 10 16 N/A
4:35 am 04:35 Cloudy with Rain 68 20.2 64 17.5 85 85 WNW 7 11 30.12 1020 10 16 0.01 0.25
4:55 am 04:55 Cloudy with Light Rain 67 19.7 64 18 90 90 ESE 6 9 30.09 1019 10 16 0.02 0.51
5:15 am 05:15 Cloudy with Light Rain 67 19.7 65 18.1 91 91 E 6 9 30.06 1018 10 16 0.01 0.25
5:35 am 05:35 Partly Cloudy 68 19.9 64 18 89 89 SE 13 20 30.03 1017 10 16 0.01 0.25
5:55 am 05:55 Clear 68 20.1 64 18 88 88 SE 9 15 30.03 1017 10 16 0.01 0.25
6:15 am 06:15 Clear 68 20 64 18 88 88 SSE 7 11 30.03 1017 10 16 N/A
6:35 am 06:35 Sunny 68 19.8 65 18.1 90 90 S 10 17 30.03 1017 10 16 N/A
6:55 am 06:55 Sunny 68 19.8 64 18 89 89 SSE 12 19 30.00 1016 10 16 N/A
7:15 am 07:15 Sunny 68 20 64 18 88 88 SSE 14 22 30.00 1016 10 16 N/A
7:35 am 07:35 Sunny 68 20.2 64 17.9 87 87 SSE 8 13 30.00 1016 10 16 N/A
7:55 am 07:55 Sunny 68 20 65 18.2 89 89 SSE 9 15 30.00 1016 10 16 N/A
8:15 am 08:15 Sunny 69 20.6 64 18 85 85 SE 8 13 29.97 1015 10 16 N/A
8:35 am 08:35 Sunny 71 21.9 65 18.3 80 80 SE 12 19 29.97 1015 10 16 N/A
8:55 am 08:55 Sunny 73 22.5 66 18.7 79 79 SSE 10 17 30.00 1016 10 16 N/A
9:15 am 09:15 Sunny 73 22.5 66 19 81 81 SSE 7 11 30.00 1016 10 16 N/A
9:35 am 09:35 Sunny 74 23.5 66 19.1 76 76 SSE 8 13 30.00 1016 10 16 N/A
9:55 am 09:55 Sunny 76 24.6 66 19.1 72 72 S 12 19 29.97 1015 10 16 N/A
10:15 am 10:15 Sunny 78 25.5 67 19.7 70 70 S 14 22 29.97 1015 10 16 N/A
10:35 am 10:35 Sunny 80 26.7 68 19.9 66 66 S 15 24 29.97 1015 10 16 N/A
10:55 am 10:55 Sunny 80 26.5 67 19.5 65 65 SSW 14 22 29.97 1015 10 16 N/A
11:15 am 11:15 Sunny 82 27.5 68 20.2 64 64 S 14 22 29.97 1015 10 16 N/A
11:35 am 11:35 Sunny 83 28.6 69 20.5 62 62 SSW 12 19 29.94 1014 10 16 N/A
11:55 am 11:55 Sunny 85 29.5 68 20.1 57 57 SSW 13 20 29.91 1013 10 16 N/A
12:15 pm 12:15 Sunny 86 29.8 69 20.4 57 57 SSW 9 15 29.91 1013 10 16 N/A
12:35 pm 12:35 Sunny 87 30.5 69 20.8 56 56 SSW 10 17 29.91 1013 10 16 N/A
12:55 pm 12:55 Sunny 88 31.1 68 19.8 51 51 SSW 15 24 29.91 1013 10 16 N/A
1:15 pm 13:15 Sunny 89 31.5 69 20.3 51 51 SSW 12 19 29.88 1012 10 16 N/A
1:35 pm 13:35 Sunny 90 32.4 71 21.5 53 53 S 13 20 29.85 1011 10 16 N/A
1:55 pm 13:55 Sunny 91 32.7 68 20 47 47 SSW 14 22 29.85 1011 10 16 N/A
2:15 pm 14:15 Sunny 92 33.2 69 20.4 47 47 S 13 20 29.85 1011 10 16 N/A
2:35 pm 14:35 Sunny 92 33.5 70 21.1 48 48 S 12 19 29.85 1011 10 16 N/A
2:55 pm 14:55 Sunny 93 33.9 70 21.2 47 47 SSE 13 20 29.85 1011 10 16 N/A
3:15 pm 15:15 Sunny 93 34.1 69 20.6 45 45 S 14 22 29.85 1011 10 16 N/A
3:35 pm 15:35 Sunny 94 34.3 69 20.8 45 45 SSE 15 24 29.85 1011 10 16 N/A
3:55 pm 15:55 Sunny 94 34.3 71 21.6 47 47 SSE 14 22 29.85 1011 10 16 N/A
4:15 pm 16:15 Sunny 94 34.3 71 21.8 48 48 SSE 10 17 29.85 1011 10 16 N/A
4:35 pm 16:35 Sunny 94 34.5 71 21.4 46 46 SSE 9 15 29.85 1011 10 16 N/A
4:55 pm 16:55 Sunny 95 34.9 70 21 44 44 SSE 10 17 29.83 1010 10 16 N/A
5:15 pm 17:15 Sunny 94 34.6 69 20.8 44 44 SSE 12 19 29.85 1011 10 16 N/A
5:35 pm 17:35 Sunny 94 34.6 70 20.9 45 45 SE 12 19 29.80 1009 10 16 N/A
5:55 pm 17:55 Sunny 94 34.5 69 20.7 44 44 SSE 13 20 29.80 1009 10 16 N/A
6:15 pm 18:15 Sunny 94 34.3 69 20.4 44 44 SSE 12 19 29.83 1010 10 16 N/A
6:35 pm 18:35 Sunny 93 34.1 69 20.4 45 45 SE 10 17 29.83 1010 10 16 N/A
6:55 pm 18:55 Sunny 92 33.5 69 20.7 47 47 SSE 13 20 29.83 1010 10 16 N/A
7:15 pm 19:15 Sunny 91 32.8 69 20.4 48 48 SSE 13 20 29.83 1010 10 16 N/A
7:35 pm 19:35 Sunny 90 32.1 68 20.2 49 49 SSE 13 20 29.83 1010 10 16 N/A
7:55 pm 19:55 Sunny 88 31.3 68 20.2 52 52 SSE 12 19 29.83 1010 10 16 N/A
8:15 pm 20:15 Sunny 87 30.7 69 20.5 55 55 SSE 13 20 29.83 1010 10 16 N/A
8:35 pm 20:35 Sunny 86 29.8 68 20 56 56 SSE 13 20 29.85 1011 10 16 N/A
8:55 pm 20:55 Sunny 83 28.6 68 19.8 59 59 SSE 12 19 29.85 1011 10 16 N/A
9:15 pm 21:15 Clear 82 28 67 19.2 59 59 SSE 13 20 29.85 1011 10 16 N/A
9:35 pm 21:35 Clear 82 27.6 65 18.6 58 58 SSE 9 15 29.85 1011 10 16 N/A
9:55 pm 21:55 Clear 81 27 65 18.2 59 59 SSE 9 15 29.85 1011 10 16 N/A
10:15 pm 22:15 Clear 81 27 64 17.6 56 56 SSE 13 20 29.85 1011 10 16 N/A
10:35 pm 22:35 Clear 80 26.9 64 17.6 57 57 SSE 10 17 29.91 1013 10 16 N/A
10:55 pm 22:55 Clear 78 25.8 64 17.7 61 61 SSE 7 11 29.91 1013 10 16 N/A
11:20 pm 23:20 Clear 78 25.8 64 17.5 60 60 S 12 19 29.91 1013 10 16 N/A
11:35 pm 23:35 Clear 79 26.1 63 17.2 58 58 S 13 20 29.91 1013 10 16 N/A
11:55 pm 23:55 Clear 80 26.5 63 17 56 56 S 14 22 29.91 1013 10 16 N/A

Powered by AerisWeather